Regional Weather Roundup
Issued by NWS

Home | Current Version | Previous Version | Graphics & Text | Print | Product List | Glossary Off
Versions: 1 2 3 4 5 6 7 8 9 10 11 12 13 14 15 16 17 18 19 20 21 22 23 24 25 26 27 28 29 30 31 32 33 34 35 36 37 38 39 40 41 42 43 44 45 46 47 48 49 50

000
ASUS43 KTOP 281759
RWRKS

WEATHER ROUNDUP FOR KANSAS
NATIONAL WEATHER SERVICE GOODLAND KS
1200 PM CST SUN DEC 28 2014

NOTE:  "FAIR" INDICATES FEW OR NO CLOUDS BELOW 12,000 FEET WITH NO
SIGNIFICANT WEATHER AND/OR OBSTRUCTIONS TO VISIBILITY.

KSZ001>006-013>018-027>032-041>047-281900-
NORTHWEST KANSAS

CITY           SKY/WX    TMP DP  RH WIND       PRES   REMARKS
GOODLAND       PTSUNNY   29  21  72 S8        29.98F
6HR MIN TEMP:  10; 6HR MAX TEMP:  29;

HAYS           SUNNY     34  18  51 S7        30.11F
HILL CITY      SUNNY     29  18  63 VRB3      30.08F
6HR MIN TEMP:   5; 6HR MAX TEMP:  29;

RUSSELL        SUNNY     34  26  72 S6        30.10F
6HR MIN TEMP:  12; 6HR MAX TEMP:  34;

$$

KSZ061>065-074>080-084>089-281900-
SOUTHWEST KANSAS

CITY           SKY/WX    TMP DP  RH WIND       PRES   REMARKS
DODGE CITY     MOSUNNY   37  18  46 S16       30.07F WCI  28
6HR MIN TEMP:  13; 6HR MAX TEMP:  37;

ELKHART          N/A     34  20  57 W2          N/A
GARDEN CITY    MOSUNNY   33  21  61 S10       30.02F WCI  25
6HR MIN TEMP:  10; 6HR MAX TEMP:  33;

GREAT BEND     SUNNY     39  23  52 S13       30.12F WCI  32
LIBERAL        SUNNY     34  21  60 S7        30.04F
$$

KSZ066>073-081>083-090>101-281900-
SOUTHEAST KANSAS

CITY           SKY/WX    TMP DP  RH WIND       PRES   REMARKS
CHANUTE        SUNNY     34  22  61 VRB3      30.22F
6HR MIN TEMP:  17; 6HR MAX TEMP:  34;

COFFEYVILLE    SUNNY     35  23  61 SE3       30.24F
6HR MIN TEMP:  20; 6HR MAX TEMP:  35;

HUTCHINSON     SUNNY     39  23  52 S7        30.16F
6HR MIN TEMP:  12; 6HR MAX TEMP:  39;

MEDICINE LODGE   N/A     37  20  50 VRB6      30.15F
NEWTON         SUNNY     37  21  52 SW7       30.18F
PARSONS        SUNNY     35  23  61 VRB5      30.24F
6HR MIN TEMP:  17; 6HR MAX TEMP:  35;

WICHITA INTL   MOSUNNY   37  22  54 S12       30.18F WCI  29
6HR MIN TEMP:  15; 6HR MAX TEMP:  37;

WICHITA JABRA  SUNNY     37  20  50 SW9       30.18F
6HR MIN TEMP:  15; 6HR MAX TEMP:  37;

WINFIELD       SUNNY     37  23  56 S5        30.21F
6HR MIN TEMP:  14; 6HR MAX TEMP:  37;

$$

KSZ007>012-019>026-033>040-048>060-102>105-281900-
NORTHEAST KANSAS

CITY           SKY/WX    TMP DP  RH WIND       PRES   REMARKS
CONCORDIA      SUNNY     35  22  58 SW7       30.14F
6HR MIN TEMP:  17; 6HR MAX TEMP:  35;

EMPORIA        SUNNY     35  23  61 SE9       30.18F
6HR MIN TEMP:  14; 6HR MAX TEMP:  35;

LAWRENCE       SUNNY     34  21  59 VRB3      30.22F
6HR MIN TEMP:  12; 6HR MAX TEMP:  34;

MANHATTAN      SUNNY     34  23  64 VRB7      30.19F
6HR MIN TEMP:  14; 6HR MAX TEMP:  35;

OLATHE IND     SUNNY     33  23  66 S7        30.21F
6HR MIN TEMP:  14; 6HR MAX TEMP:  33;

OLATHE EXE     SUNNY     32  21  64 S7        30.20F
6HR MIN TEMP:  16; 6HR MAX TEMP:  32;

SALINA         SUNNY     35  24  64 S5        30.17F
6HR MIN TEMP:  16; 6HR MAX TEMP:  36;

TOPEKA BILLARD SUNNY     36  21  54 S3        30.21F
6HR MIN TEMP:  15; 6HR MAX TEMP:  36;

TOPEKA FORBES  SUNNY     35  21  56 SW3       30.19F
6HR MIN TEMP:  15; 6HR MAX TEMP:  35;

$$


USA.gov is the U.S. government's official web portal to all federal, state and local government web resources and services.